Skip Page Navigation
NASA JPL Caltech
NASA Logo - Jet Propulsion Laboratory + View the NASA Portal
+ Center for Near-Earth Object Studies
JPL Home Earth Solar System Stars & Galaxies Technology
JPL Solar System Dynamics
BODIES ORBITS EPHEMERIDES TOOLS PHYSICAL DATA DISCOVERY FAQ SITE MAP
IMPORTANT: The SSD Announcement email list is now available. Major changes are coming in the near future, including possible hostname and/or URL changes. To be notified of such changes, subscribe to this email list.

Please visit this page for more details.


JPL Small-Body Database Browser
Search: [ help ]  
434827 (2006 SP25)
Classification: Main-belt Asteroid          SPK-ID: 2434827
Ephemeris | Orbit Diagram | Orbital Elements | Mission Design | Physical Parameters | Discovery Circumstances ]

[ show orbit diagram ]
Orbital Elements at Epoch 2458600.5 (2019-Apr-27.0) TDB
Reference: JPL 12 (heliocentric ecliptic J2000)
 Element Value Uncertainty (1-sigma)   Units 
e .1075854914032324 6.9636e-08  
a 3.002127197057741 5.0163e-08 au
q 2.679141867307275 1.9915e-07 au
i 9.830916690217466 7.5226e-06 deg
node 328.0288324219915 4.0188e-05 deg
peri 31.58104012578637 5.1957e-05 deg
M 147.1726502019338 3.5548e-05 deg
tp 2457823.776097803033
(2017-Mar-11.27609780)
0.00018051 TDB
period 1899.949511048719
5.20
4.762e-05
1.304e-07
d
yr
n .1894787192535922 4.749e-09 deg/d
Q 3.325112526808206 5.556e-08 au
  Orbit Determination Parameters
   # obs. used (total)      110  
   data-arc span      6342 days (17.36 yr)  
   first obs. used      2001-09-29  
   last obs. used      2019-02-09  
   planetary ephem.      DE431  
   SB-pert. ephem.      SB431-N16  
   condition code      0  
   norm. resid. RMS      .54341  
   source      ORB  
   producer      Otto Matic  
   solution date      2019-Jul-14 08:56:25  

Additional Information
 Earth MOID = 1.67914 au 
 Jupiter MOID = 2.11133 au 
 T_jup = 3.221 
[ show covariance matrix ]

Ephemeris | Orbit Diagram | Orbital Elements | Mission Design | Physical Parameters | Discovery Circumstances ]

Physical Parameter Table
Parameter Symbol Value Units Sigma Reference Notes
absolute magnitude H 16.0   n/a MPO434587  

434827 (2006 SP25)          Discovered 2006-Sep-16 by LONEOS at Anderson Mesa
Reference: Last Updated: 2015-06-04
Ephemeris | Orbit Diagram | Orbital Elements | Mission Design | Physical Parameters | Discovery Circumstances ]
ABOUT SSD CREDITS/AWARDS PRIVACY/COPYRIGHT GLOSSARY LINKS
FirstGov
(server date/time)  
NASA Home Page
Site Manager:   Ryan S. Park
Webmaster  Alan B. Chamberlin